Regional Weather Roundup
Issued by NWS Sioux Falls, SD

Home | Current Version | Previous Version | Text Only | Print | Product List | Glossary Off
Versions: 1 2 3 4 5 6 7 8 9 10 11 12 13 14 15 16 17 18 19 20 21 22 23 24 25 26 27 28 29 30 31 32 33 34 35 36 37 38 39 40 41 42 43 44 45 46 47 48 49 50

000
ASUS43 KFSD 240602
RWRFSD

WEATHER ROUNDUP FOR SE SOUTH DAKOTA/SW MINNESOTA/NW IOWA
NATIONAL WEATHER SERVICE SIOUX FALLS SD
100 AM CDT THU JUL 24 2014

NOTE: "FAIR" INDICATES FEW OR NO CLOUDS BELOW 12,000 FEET WITH NO
SIGNIFICANT WEATHER AND OR OBSTRUCTIONS TO VISIBILITY.


SDZ038>040-050-052>070-240700-
SOUTHEAST SOUTH DAKOTA

CITY           SKY/WX    TMP DP  RH WIND       PRES   REMARKS
CHAMBERLAIN    PTCLDY    66  59  76 SE10      30.12S
6HR MIN TEMP:  66; 6HR MAX TEMP:  83;

HURON          CLEAR     65  55  70 SE10      30.13F
6HR MIN TEMP:  65; 6HR MAX TEMP:  78;

MADISON        FAIR      59  55  88 SE7       30.19S
MITCHELL       CLEAR     64  59  83 SE5       30.16R
6HR MIN TEMP:  64; 6HR MAX TEMP:  81;

SIOUX FALLS    CLEAR     64  56  75 E7        30.17F
6HR MIN TEMP:  64; 6HR MAX TEMP:  77;

WINNER         FAIR      71  58  63 SE15      30.10S
YANKTON        CLEAR     64  61  88 CALM      30.16S
$$

MNZ071-072-080-081-089-090-097-098-240700-
SOUTHWEST MINNESOTA

CITY           SKY/WX    TMP DP  RH WIND       PRES   REMARKS
FAIRMONT       CLEAR     61  54  77 NW3       30.18S
JACKSON        CLEAR     57  54  88 CALM      30.20R
LUVERNE        CLEAR     61  54  77 CALM      30.19S
MARSHALL       CLEAR     63  55  77 SW3       30.17S
6HR MIN TEMP:  61; 6HR MAX TEMP:  79;

MONTEVIDEO     CLEAR     61  55  82 CALM      30.18S
PIPESTONE      CLEAR     63  55  77 E3        30.20S
REDWOOD FALLS  CLEAR     65  54  67 CALM      30.17S
TRACY          CLEAR     65  55  69 S5        30.20R
WINDOM         CLEAR     63  54  72 CALM      30.20R
WORTHINGTON    CLEAR     57  54  88 CALM      30.21R
$$

IAZ001>003-012>014-020>022-031-032-NEZ013-014-SDZ071-240700-
NORTHWEST IOWA

CITY           SKY/WX    TMP DP  RH WIND       PRES   REMARKS
CHEROKEE       CLEAR     63  60  91 CALM      30.19R
DENISON        CLEAR     64  63  94 CALM      30.17S
ESTHERVILLE    CLEAR     58  55  90 W5        30.19R
SHELDON        PTCLDY    59  57  94 E3        30.18S
SIOUX CITY     CLEAR     66  61  84 E3        30.16S
6HR MIN TEMP:  65; 6HR MAX TEMP:  81;

SPENCER        MOCLDY    57  54  89 NW3       30.19R
6HR MIN TEMP:  57; 6HR MAX TEMP:  80;

STORM LAKE     CLEAR     63  61  94 CALM      30.20R
$$

ABBREVIATIONS USED IN REMARKS
   TC - TEMPERATURE IN CELSIUS
  WCI - WIND CHILL INDEX
   HX - HEAT INDEX
  VSB - VISIBILITY



USA.gov is the U.S. government's official web portal to all federal, state and local government web resources and services.